Terminal Aerodrome Forecast
Issued by NWS Pittsburgh, PA

Current Version | Previous Version | Graphics & Text | Print | Product List | Glossary On
Versions: 1 2 3 4 5 6 7 8 9 10 11 12 13 14 15 16 17 18 19 20 21 22 23 24 25 26 27 28 29 30
000
FTUS41 KPBZ 262209 AAD
TAFPIT
TAF AMD
KPIT 262209Z 2622/2724 28008KT P6SM VCSH BKN035
     FM270100 28010G18KT P6SM BKN120
     FM270400 26005KT P6SM SCT150=

USA.gov is the U.S. government's official web portal to all federal, state and local government web resources and services.